Wind_Speed
55 43 41 38 37 35 33 30 28 27 28 30 33 39 44 47 39 26 14 11 8 7 11 8 9 12 10 10 5 11 6 1 3 3 3 3 3 4 2 3 5 5 6 3 3 1 6 7 4 4 3 4 5 11
41 38 37 36 34 32 29 27 24 23 24 28 34 39 41 44 42 26 12 12 11 7 10 14 11 11 9 11 15 21 6 6 8 4 1 3 2 2 2 3 0 3 5 4 8 5 4 11 8 10 8 8 6 9
39 37 36 34 33 31 28 25 23 23 25 28 33 36 38 40 37 20 15 16 14 20 13 10 11 10 11 12 14 9 6 9 8 7 8 2 3 3 4 4 2 3 5 2 1 2 9 16 18 23 23 23 14 14
38 37 36 34 32 30 27 25 25 24 26 27 30 33 35 37 26 22 14 16 8 10 7 4 7 8 7 10 8 8 12 14 15 8 5 3 3 6 3 2 2 2 7 3 4 11 13 11 11 13 15 18 19 17
36 36 34 33 31 30 28 25 24 24 27 30 31 34 35 38 28 22 19 13 12 3 7 8 13 11 9 8 7 9 14 16 10 5 3 2 6 5 2 1 3 7 4 4 4 4 5 9 12 14 13 11 10 9
32 33 31 30 29 28 27 26 26 25 28 31 31 30 29 31 32 23 10 8 11 13 8 3 5 7 12 12 14 15 12 8 5 5 4 4 4 3 3 3 3 7 8 8 6 15 16 15 15 13 10 7 4 8
30 30 27 27 30 26 25 26 25 28 29 32 32 32 32 31 30 19 9 14 13 11 5 4 2 4 6 7 6 7 6 5 4 5 4 4 3 4 3 3 8 13 14 10 8 9 4 9 6 6 2 9 13 22
29 28 25 24 24 24 23 24 25 24 20 24 23 22 20 18 20 20 18 15 13 8 5 4 1 3 3 3 3 3 4 4 6 4 4 4 5 2 2 7 15 14 12 4 13 7 2 4 8 12 14 20 24 22
24 24 24 21 20 21 21 23 24 25 25 23 22 20 20 14 7 13 15 12 11 6 6 4 4 3 2 4 3 3 3 3 2 2 2 3 1 1 3 7 12 14 10 7 4 8 11 13 18 20 22 20 22 20
27 27 24 21 19 18 19 20 20 22 23 24 17 6 5 8 20 13 5 3 4 6 6 4 3 2 3 2 4 2 4 2 2 1 2 2 2 6 5 6 8 12 9 8 12 16 19 23 22 21 21 18 15 10
26 24 23 20 20 16 15 16 16 17 19 6 5 7 17 12 5 5 5 7 7 5 6 4 4 3 2 2 2 3 2 1 2 1 2 1 2 2 6 9 11 13 13 13 17 22 22 21 19 16 12 8 5 2
26 20 14 12 13 14 14 14 13 10 9 14 16 14 6 5 6 6 3 2 4 2 2 3 4 4 3 3 4 2 3 1 2 4 2 2 2 7 11 15 19 21 24 23 20 20 17 14 10 6 2 1 4 5
21 21 19 17 14 10 10 10 10 14 14 11 5 5 5 6 6 3 4 0 2 2 3 4 2 3 3 4 5 2 3 2 6 2 1 2 10 12 17 18 17 16 16 15 12 9 6 3 3 4 5 5 7 7
22 21 19 18 17 16 16 16 18 20 8 4 4 5 3 2 2 2 1 2 3 5 9 8 5 3 3 3 1 3 1 2 3 3 3 3 13 15 15 15 11 10 8 6 5 5 5 6 7 7 8 8 7 7
19 16 19 21 15 14 13 12 11 7 6 6 5 4 3 4 5 7 8 7 6 8 7 7 6 3 3 3 2 3 2 2 2 2 2 10 16 16 13 10 8 6 6 5 5 4 4 4 4 5 5 5 6 9
14 15 19 17 15 14 12 10 10 7 6 6 6 4 6 6 4 6 11 9 8 10 8 5 3 2 2 2 2 2 4 3 3 3 10 18 18 14 16 8 6 4 4 5 4 5 4 5 6 7 8 11 14 19
16 21 16 14 13 13 13 13 7 7 5 4 4 9 8 9 6 5 6 5 6 3 2 2 3 1 2 2 1 2 3 3 11 16 16 17 15 13 12 11 4 3 2 1 3 4 5 6 8 12 17 21 23 24
18 15 13 13 13 12 12 8 7 6 6 7 5 6 10 8 9 7 7 7 3 3 2 2 5 2 3 3 2 2 5 14 16 15 14 9 8 8 7 8 5 3 1 1 2 4 6 10 15 19 21 23 26 28
18 13 9 9 8 5 5 6 6 6 7 5 8 10 10 10 12 11 9 6 4 6 6 2 3 1 2 3 3 10 16 17 15 12 10 7 8 10 10 8 6 3 1 2 4 8 11 14 16 19 22 25 27 29
15 13 10 8 5 5 6 6 7 6 4 3 6 6 6 6 8 8 6 5 4 2 3 2 1 1 1 3 5 11 14 14 13 12 11 12 11 10 9 6 3 1 2 4 7 9 12 15 18 21 24 26 28 29
14 15 12 9 15 11 7 5 6 5 4 4 6 4 4 5 4 3 4 3 4 3 3 3 3 6 8 9 10 9 9 9 10 8 14 14 12 8 6 3 1 1 4 7 10 13 16 19 22 24 25 26 26 27
14 12 11 11 8 6 8 8 5 4 4 5 3 3 3 3 3 2 2 2 3 3 2 2 7 8 9 9 8 7 7 6 6 6 9 11 10 7 4 1 2 5 8 11 14 16 19 20 22 23 24 26 27 27
11 10 9 9 6 7 4 5 3 3 2 3 3 2 2 2 1 2 2 2 2 2 3 1 6 8 8 10 8 7 7 6 8 9 8 7 5 4 1 3 6 8 11 13 16 18 19 21 21 23 24 25 26 26
10 7 7 7 9 3 3 5 4 3 3 2 1 1 1 2 3 2 1 2 3 4 2 1 6 10 11 11 10 9 9 7 6 6 5 3 1 2 4 6 9 11 14 16 17 18 19 19 21 22 23 24 24 23
5 9 6 6 7 5 5 4 5 5 1 2 2 1 1 1 2 1 1 3 8 5 2 3 5 5 7 8 8 7 6 5 3 1 1 1 1 3 5 8 11 13 16 16 17 18 19 20 21 21 21 22 22 20
6 7 4 2 3 3 1 2 0 2 1 2 1 1 2 2 3 2 3 6 6 8 8 5 3 5 6 5 5 4 3 2 2 0 1 1 2 5 8 10 12 14 16 17 19 20 20 21 21 20 19 19 19 20
4 4 4 3 2 1 1 1 1 0 1 1 1 1 1 1 2 3 3 7 3 6 6 4 2 1 4 5 5 4 4 2 2 1 1 3 6 9 11 12 14 15 17 18 19 20 21 21 20 19 19 18 19 21
3 3 3 5 2 1 1 1 1 2 1 4 1 3 2 2 2 2 2 4 4 4 5 5 5 5 5 5 4 5 4 3 2 2 4 7 9 10 12 14 15 16 17 18 18 18 19 19 19 19 19 19 19 19
4 4 4 4 2 3 3 2 2 3 5 1 2 2 3 3 4 5 5 4 2 2 4 4 3 4 3 3 3 3 3 3 4 6 7 8 10 12 14 15 16 17 17 16 16 17 17 18 18 17 18 18 18 17
5 7 3 3 2 1 3 4 2 4 6 6 6 7 7 8 6 5 4 1 2 1 2 3 3 2 2 2 3 3 3 4 6 9 11 12 14 15 16 17 17 18 17 16 15 15 15 15 15 15 15 15 14 14
4 5 2 2 2 1 2 2 3 2 2 6 6 5 8 7 7 5 4 2 2 2 2 2 3 3 4 5 6 7 8 10 13 14 15 15 16 16 16 17 17 17 17 16 16 16 15 15 15 15 15 15 14 14
4 3 4 2 0 3 4 1 1 1 1 2 3 4 5 4 3 3 1 1 3 4 3 3 3 4 5 6 8 10 12 14 15 15 15 15 15 15 16 17 17 16 16 15 15 15 15 15 15 15 14 14 14 14
3 2 2 3 2 2 3 4 2 1 2 3 3 3 2 3 3 3 2 1 2 3 3 3 4 6 8 10 13 15 16 16 16 16 16 16 16 17 18 17 16 16 15 15 15 15 14 14 14 13 13 13 14 14
Wind_Direction
148 143 151 152 154 154 155 158 166 174 178 178 179 180 180 180 180 178 171 178 171 124 142 169 152 157 155 155 136 152 103 235 61 80 132 179 155 199 149 161 181 173 155 180 110 201 275 191 128 177 233 221 216 207
136 137 143 144 144 144 148 154 158 163 168 172 175 177 178 181 184 183 186 192 170 126 127 125 134 157 174 170 146 164 169 156 159 93 134 120 136 145 128 220 312 225 200 179 197 219 242 204 234 234 264 263 269 263
132 134 135 138 141 142 140 140 141 151 158 165 170 173 175 178 180 181 190 177 138 115 104 110 101 120 152 156 162 140 176 164 163 135 143 130 131 143 159 230 193 234 169 212 134 250 242 259 260 266 275 267 281 287
130 133 134 135 135 137 134 131 138 144 146 154 161 165 166 166 157 176 168 172 156 126 108 81 105 105 124 156 161 166 186 162 150 134 108 132 130 194 183 156 195 201 154 177 261 280 286 289 297 308 295 285 282 279
127 128 129 130 129 128 130 132 130 131 138 140 148 154 160 165 167 154 172 213 181 168 131 124 97 74 96 135 139 136 154 155 143 109 93 138 127 125 67 72 254 187 189 176 233 321 254 294 327 321 319 304 285 257
124 122 120 124 126 120 127 124 121 122 125 131 135 143 152 160 165 176 154 139 148 123 109 109 114 102 104 116 132 136 141 137 125 116 111 107 128 124 130 201 23 3 339 312 288 308 302 306 313 316 312 302 230 179
125 119 118 122 123 135 122 130 122 120 125 126 129 135 140 148 160 182 164 148 135 121 102 90 34 123 131 126 112 102 113 104 102 100 75 119 115 147 129 193 355 355 354 357 355 334 340 356 345 346 65 135 144 132
130 130 137 116 119 122 120 118 126 145 126 129 129 136 137 147 134 111 114 124 128 100 88 109 309 98 119 79 73 70 94 96 54 93 98 106 118 115 198 359 343 345 339 309 357 355 5 112 109 106 127 140 127 112
138 142 129 119 115 119 121 121 122 129 136 136 132 129 124 116 92 105 106 106 89 98 105 83 131 188 62 80 74 69 67 65 67 106 85 139 113 121 1 329 347 350 332 316 87 99 113 106 105 111 107 93 88 80
135 137 140 125 117 119 125 129 133 134 135 135 129 115 88 98 112 102 68 70 56 38 56 79 87 98 82 95 66 80 34 87 137 315 66 72 84 104 44 30 19 16 29 146 110 95 106 102 101 95 85 78 77 73
152 143 147 134 132 126 125 127 131 136 137 113 72 68 115 111 82 59 62 47 1 42 37 71 85 117 94 118 121 42 109 22 140 217 174 138 128 107 73 68 66 71 82 96 106 108 101 94 88 87 90 81 63 5
154 164 156 143 135 140 142 138 132 124 81 88 102 97 67 56 62 75 46 25 44 121 66 93 92 93 81 91 104 98 101 116 142 148 151 187 110 123 116 110 103 99 96 95 89 93 97 97 99 102 98 320 329 331
139 137 143 153 162 152 132 119 115 117 112 105 73 78 21 11 65 118 166 169 131 168 129 132 76 96 102 82 82 107 134 143 134 174 188 76 147 125 125 117 112 109 108 107 110 112 109 79 30 14 8 356 349 346
121 152 143 144 152 145 139 134 139 137 109 84 67 74 85 92 64 73 100 105 115 127 130 119 90 90 85 74 78 114 71 119 182 210 186 132 151 138 125 123 126 120 111 96 79 61 39 18 9 3 358 354 355 345
85 89 100 111 134 147 152 161 161 148 63 65 38 66 58 108 85 96 105 106 111 136 126 101 76 80 42 93 37 109 98 197 221 187 111 149 151 147 146 146 132 113 91 76 61 45 35 32 27 25 21 3 338 320
97 101 86 88 96 96 101 106 148 104 55 54 55 82 109 84 71 84 103 100 120 122 105 85 94 91 77 117 111 168 142 213 172 153 144 153 148 155 155 153 130 93 74 70 50 30 16 8 11 10 344 327 324 320
103 84 90 98 107 114 116 110 85 69 71 68 61 90 93 102 107 108 109 98 123 88 83 106 85 142 123 75 114 181 191 183 149 147 142 141 143 158 171 171 155 143 141 17 3 1 7 357 339 327 330 331 329 329
82 79 86 106 114 113 99 56 73 70 69 58 83 66 78 90 109 96 101 122 84 80 84 101 125 113 158 150 224 204 132 142 150 154 155 157 178 182 177 175 187 193 208 47 13 352 335 332 335 340 339 336 334 332
67 68 89 108 116 93 68 51 49 81 61 65 79 83 91 87 94 97 89 79 95 108 118 86 76 136 212 212 157 146 156 157 149 146 152 166 155 166 174 177 171 164 172 334 334 338 341 342 344 342 339 336 336 336
61 60 79 97 99 75 72 50 58 74 69 59 82 73 73 81 96 89 89 50 41 50 53 53 175 49 87 112 134 168 166 172 173 156 148 147 155 163 162 164 167 188 317 323 330 335 341 342 341 340 339 336 334 335
66 62 70 90 65 64 76 64 64 74 83 78 88 68 68 91 82 78 71 41 17 35 45 36 78 112 113 117 119 131 149 165 177 195 183 164 164 166 160 159 160 310 329 342 346 347 345 343 340 337 336 335 333 331
51 54 59 56 66 66 69 47 78 83 75 95 77 67 64 62 66 86 100 63 26 16 23 78 145 142 134 126 122 131 133 152 163 168 168 169 159 166 164 141 359 351 349 349 347 345 342 340 337 334 331 331 332 332
51 54 51 40 75 58 51 44 76 46 92 134 132 89 107 104 81 122 72 67 83 3 324 273 185 185 166 143 138 135 135 133 137 140 149 158 159 148 80 355 353 353 349 345 342 340 339 336 332 331 331 332 333 336
45 51 38 44 36 61 38 42 46 39 73 28 51 56 39 82 133 95 75 60 25 26 43 206 185 165 152 143 138 135 132 134 137 139 135 122 76 357 355 350 346 342 339 339 338 335 331 331 331 334 335 336 340 343
56 21 36 25 31 53 37 17 8 41 19 310 77 330 193 128 75 54 55 44 29 35 85 170 182 171 146 127 122 123 132 138 143 156 128 90 0 351 346 341 337 335 334 332 328 330 333 334 335 336 339 339 342 346
70 22 55 37 19 68 166 61 237 243 162 349 267 98 144 92 75 74 50 13 24 45 60 77 111 136 130 129 126 122 124 116 79 7 92 73 359 343 336 336 335 331 329 330 331 333 334 334 334 335 338 338 338 337
59 28 58 58 53 65 345 298 278 317 324 229 248 82 132 78 69 51 10 24 57 55 45 41 39 77 121 115 94 74 70 68 52 74 64 348 335 335 331 330 331 332 331 330 330 329 329 330 331 332 334 338 336 336
81 56 61 352 23 38 136 16 61 32 7 357 79 42 70 42 96 79 74 88 85 58 42 51 75 87 86 80 70 64 66 70 63 7 342 335 329 329 329 330 328 327 330 329 329 327 326 327 329 331 334 336 336 336
52 13 358 21 44 65 47 51 17 18 335 317 89 87 97 92 121 139 142 137 95 8 4 28 59 60 47 42 47 58 51 29 360 353 339 329 326 325 323 323 326 328 329 329 327 326 328 329 330 332 333 334 336 336
21 2 15 35 70 28 39 21 26 29 52 88 107 112 107 110 106 130 140 186 285 358 64 47 24 43 67 70 64 49 22 2 346 341 335 330 329 327 327 327 329 329 329 330 330 330 329 329 327 328 329 330 332 334
357 357 7 29 91 101 22 18 61 125 84 75 76 112 130 135 133 126 131 107 53 25 46 80 82 72 59 43 27 11 355 346 339 335 331 329 327 327 326 328 330 332 332 331 332 332 331 330 330 332 333 335 336 338
356 21 357 353 187 341 323 226 228 259 77 79 82 99 125 133 127 166 173 53 57 61 60 65 55 42 27 14 360 350 344 337 331 329 327 327 329 330 331 331 330 331 329 328 328 329 329 330 331 333 335 337 339 341
304 328 305 299 315 358 336 347 70 112 81 81 77 91 101 108 113 141 156 152 70 34 40 52 36 12 357 347 344 340 337 333 331 330 331 330 329 330 329 327 327 328 326 326 327 327 328 330 332 334 336 338 339 340
Height
1280 1291 1301 1311 1321 1330 1339 1346 1354 1360 1365 1370 1377 1386 1394 1404 1414 1419 1425 1429 1432 1435 1442 1445 1446 1449 1453 1456 1465 1474 1481 1482 1486 1494 1499 1504 1506 1505 1506 1506 1512 1510 1518 1523 1538 1528 1512 1493 1496 1499 1490 1486 1486 1485
1293 1303 1312 1320 1328 1335 1344 1351 1356 1360 1364 1371 1378 1386 1394 1404 1413 1420 1425 1428 1431 1434 1442 1445 1446 1448 1451 1454 1456 1466 1467 1470 1474 1487 1498 1503 1506 1511 1509 1502 1507 1507 1502 1504 1507 1499 1491 1490 1488 1487 1487 1486 1485 1486
1306 1313 1321 1329 1336 1343 1350 1354 1358 1362 1367 1373 1379 1387 1395 1404 1413 1421 1424 1428 1430 1435 1444 1447 1448 1450 1451 1452 1455 1459 1466 1467 1469 1472 1482 1492 1496 1501 1504 1504 1502 1499 1499 1500 1500 1487 1487 1487 1487 1485 1484 1484 1484 1484
1318 1325 1332 1339 1344 1349 1354 1358 1363 1367 1370 1376 1382 1389 1397 1406 1414 1421 1424 1427 1429 1432 1440 1450 1449 1451 1452 1453 1455 1457 1458 1463 1467 1472 1476 1486 1491 1494 1500 1498 1498 1494 1497 1496 1496 1486 1485 1483 1483 1483 1482 1481 1480 1480
1328 1334 1341 1347 1350 1354 1360 1365 1367 1371 1374 1379 1385 1392 1399 1407 1415 1419 1424 1428 1428 1432 1439 1449 1451 1453 1453 1454 1456 1457 1459 1462 1467 1472 1476 1483 1485 1492 1499 1500 1496 1490 1489 1492 1489 1485 1484 1482 1482 1480 1479 1478 1477 1478
1338 1343 1347 1353 1358 1362 1367 1371 1373 1376 1380 1384 1390 1396 1403 1409 1416 1425 1431 1430 1429 1428 1434 1450 1455 1456 1456 1457 1457 1459 1462 1464 1467 1469 1477 1480 1482 1486 1495 1496 1490 1489 1488 1487 1485 1483 1482 1481 1479 1478 1477 1476 1476 1478
1348 1352 1357 1361 1364 1369 1371 1375 1379 1384 1386 1390 1396 1402 1407 1412 1417 1422 1422 1426 1427 1429 1432 1450 1455 1456 1457 1458 1460 1462 1463 1465 1468 1472 1477 1481 1483 1485 1491 1490 1491 1488 1486 1484 1483 1481 1480 1478 1478 1477 1476 1478 1479 1481
1356 1361 1364 1366 1371 1374 1378 1382 1386 1389 1393 1397 1402 1407 1411 1416 1419 1421 1422 1425 1427 1429 1433 1448 1457 1458 1458 1459 1461 1463 1464 1467 1471 1475 1479 1481 1485 1486 1488 1490 1488 1486 1484 1483 1481 1480 1480 1480 1480 1480 1481 1480 1481 1485
1361 1366 1370 1372 1376 1380 1384 1387 1390 1394 1397 1400 1405 1409 1413 1416 1419 1423 1425 1427 1429 1433 1436 1444 1454 1460 1460 1462 1464 1466 1466 1473 1476 1476 1480 1482 1486 1487 1492 1490 1488 1485 1483 1482 1482 1481 1482 1481 1483 1485 1487 1489 1489 1492
1368 1371 1376 1379 1383 1386 1389 1393 1396 1399 1402 1405 1409 1412 1416 1419 1421 1424 1428 1430 1432 1436 1440 1450 1456 1460 1462 1463 1467 1470 1470 1475 1478 1481 1480 1481 1487 1492 1491 1490 1488 1485 1481 1482 1482 1485 1486 1487 1488 1490 1491 1493 1494 1495
1372 1377 1382 1385 1388 1392 1395 1397 1399 1402 1404 1406 1409 1414 1420 1422 1424 1428 1433 1438 1443 1447 1451 1455 1457 1459 1463 1464 1468 1471 1475 1477 1478 1481 1481 1483 1486 1491 1491 1490 1488 1487 1485 1484 1484 1487 1490 1491 1492 1493 1494 1494 1494 1493
1377 1381 1384 1388 1392 1396 1399 1401 1403 1405 1406 1408 1412 1419 1422 1424 1428 1435 1447 1449 1450 1454 1456 1456 1459 1461 1463 1464 1467 1473 1476 1479 1478 1482 1481 1481 1490 1490 1490 1490 1491 1491 1490 1490 1492 1493 1494 1494 1494 1494 1493 1493 1493 1493
1381 1384 1388 1391 1394 1397 1400 1402 1403 1406 1408 1413 1419 1425 1429 1436 1442 1447 1450 1452 1453 1453 1455 1457 1460 1462 1464 1465 1469 1471 1472 1476 1480 1479 1478 1484 1488 1490 1491 1492 1494 1494 1494 1494 1495 1496 1496 1496 1495 1495 1494 1494 1493 1493
1387 1390 1392 1394 1398 1401 1404 1406 1407 1409 1413 1417 1423 1434 1439 1441 1445 1447 1448 1449 1453 1454 1455 1457 1460 1462 1464 1467 1470 1469 1477 1476 1475 1475 1481 1486 1487 1490 1492 1494 1495 1496 1496 1497 1497 1497 1497 1496 1495 1495 1494 1493 1493 1492
1395 1395 1397 1398 1401 1404 1407 1410 1411 1413 1416 1423 1428 1439 1443 1446 1447 1449 1450 1452 1454 1455 1456 1458 1461 1463 1466 1469 1471 1474 1477 1478 1479 1479 1482 1485 1487 1490 1493 1495 1496 1497 1497 1498 1497 1497 1497 1496 1495 1495 1493 1492 1491 1490
1403 1403 1402 1404 1406 1408 1410 1412 1414 1418 1426 1433 1439 1445 1448 1448 1450 1451 1453 1454 1455 1456 1457 1459 1463 1465 1470 1471 1472 1473 1474 1478 1479 1480 1481 1484 1487 1490 1493 1495 1496 1497 1497 1497 1497 1496 1496 1495 1494 1493 1492 1491 1489 1486
1407 1406 1409 1410 1412 1414 1416 1417 1420 1427 1435 1442 1447 1447 1448 1450 1452 1453 1455 1457 1457 1458 1460 1462 1466 1469 1471 1473 1474 1473 1474 1475 1476 1480 1483 1485 1488 1490 1492 1494 1495 1496 1496 1496 1495 1495 1494 1493 1492 1491 1488 1486 1483 1481
1410 1412 1413 1414 1416 1417 1419 1420 1426 1436 1443 1447 1448 1450 1451 1452 1454 1455 1456 1458 1459 1460 1462 1463 1465 1470 1472 1473 1474 1472 1473 1475 1479 1482 1485 1487 1488 1490 1492 1493 1494 1494 1494 1494 1494 1493 1492 1491 1489 1486 1484 1481 1478 1475
1415 1415 1416 1417 1418 1419 1423 1430 1434 1443 1449 1450 1452 1452 1454 1456 1458 1459 1460 1461 1461 1462 1464 1465 1468 1470 1470 1469 1469 1470 1474 1476 1479 1482 1484 1486 1487 1489 1490 1492 1492 1493 1493 1492 1492 1491 1489 1487 1485 1483 1480 1477 1473 1469
1419 1419 1418 1419 1420 1421 1430 1438 1441 1446 1452 1455 1455 1457 1458 1459 1461 1463 1463 1464 1464 1464 1465 1467 1469 1469 1469 1469 1470 1472 1474 1476 1478 1481 1483 1485 1487 1488 1489 1490 1491 1491 1491 1491 1490 1489 1487 1485 1482 1479 1476 1473 1468 1465
1423 1422 1421 1422 1422 1427 1437 1444 1449 1453 1455 1457 1459 1460 1462 1462 1464 1465 1466 1467 1467 1467 1468 1469 1470 1470 1471 1471 1472 1473 1474 1477 1478 1480 1481 1483 1486 1487 1488 1489 1490 1490 1490 1489 1487 1485 1483 1481 1478 1475 1472 1468 1465 1461
1426 1426 1425 1426 1431 1438 1446 1451 1454 1456 1458 1460 1462 1463 1463 1464 1465 1466 1467 1468 1470 1471 1471 1471 1472 1472 1473 1473 1474 1475 1476 1478 1478 1479 1481 1483 1485 1486 1487 1488 1488 1487 1487 1486 1484 1482 1479 1477 1474 1471 1468 1464 1460 1456
1430 1429 1431 1435 1439 1446 1457 1456 1457 1459 1460 1462 1463 1464 1465 1466 1467 1468 1469 1470 1471 1472 1472 1472 1471 1472 1473 1474 1475 1476 1478 1479 1479 1480 1482 1483 1484 1485 1486 1486 1485 1485 1484 1482 1480 1478 1476 1473 1471 1467 1463 1459 1455 1451
1434 1436 1441 1446 1450 1456 1458 1459 1461 1462 1462 1463 1463 1466 1467 1467 1468 1469 1470 1472 1473 1472 1472 1472 1472 1472 1473 1474 1475 1476 1477 1479 1480 1481 1482 1483 1483 1484 1484 1483 1483 1482 1481 1479 1477 1475 1473 1470 1466 1463 1458 1454 1451 1447
1442 1452 1454 1457 1459 1459 1464 1465 1465 1465 1469 1468 1467 1468 1467 1467 1470 1471 1473 1475 1474 1473 1473 1473 1473 1474 1474 1475 1476 1477 1478 1480 1481 1482 1482 1482 1483 1483 1482 1482 1480 1479 1477 1476 1474 1472 1469 1465 1462 1458 1454 1450 1447 1443
1455 1460 1461 1464 1466 1466 1468 1471 1471 1469 1469 1469 1468 1467 1467 1469 1473 1475 1477 1478 1477 1476 1475 1474 1475 1475 1475 1476 1477 1479 1479 1480 1481 1481 1481 1482 1482 1482 1480 1480 1478 1477 1474 1472 1469 1466 1463 1460 1457 1454 1451 1447 1444 1440
1463 1465 1466 1467 1467 1467 1468 1468 1469 1469 1470 1470 1468 1468 1468 1469 1477 1481 1481 1479 1479 1479 1478 1477 1477 1477 1477 1478 1478 1479 1480 1480 1480 1481 1481 1481 1480 1479 1478 1477 1475 1473 1470 1467 1465 1461 1458 1455 1453 1450 1447 1444 1440 1436
1466 1467 1469 1469 1468 1468 1469 1470 1470 1469 1469 1469 1469 1471 1472 1476 1480 1483 1482 1482 1481 1481 1481 1480 1479 1479 1479 1479 1479 1480 1480 1480 1480 1480 1480 1479 1478 1477 1475 1473 1471 1469 1466 1463 1460 1458 1455 1451 1448 1445 1443 1440 1437 1433
1468 1469 1469 1469 1469 1469 1470 1471 1471 1471 1470 1469 1470 1473 1477 1479 1481 1481 1482 1483 1482 1482 1482 1481 1480 1480 1480 1480 1480 1480 1480 1480 1480 1479 1478 1477 1476 1474 1472 1469 1467 1464 1462 1459 1456 1453 1450 1447 1444 1442 1439 1436 1433 1430
1470 1470 1470 1470 1471 1472 1472 1472 1472 1471 1470 1469 1471 1474 1477 1480 1481 1481 1482 1482 1482 1482 1481 1481 1481 1481 1481 1481 1480 1480 1480 1479 1478 1477 1475 1474 1472 1470 1467 1465 1462 1460 1457 1455 1452 1450 1447 1445 1442 1439 1437 1434 1431 1428
1472 1472 1472 1471 1472 1473 1472 1472 1472 1471 1471 1471 1472 1473 1476 1479 1481 1481 1482 1482 1481 1481 1481 1481 1481 1481 1481 1481 1480 1479 1479 1477 1475 1474 1472 1470 1468 1465 1463 1461 1458 1456 1453 1451 1448 1446 1443 1441 1438 1436 1433 1430 1428 1425
1473 1473 1473 1472 1472 1473 1472 1471 1471 1472 1471 1472 1474 1475 1477 1479 1480 1482 1482 1482 1482 1482 1481 1481 1481 1481 1481 1480 1480 1478 1477 1475 1473 1471 1469 1467 1464 1462 1459 1457 1454 1452 1449 1447 1445 1442 1440 1438 1435 1432 1430 1428 1425 1423
1474 1474 1474 1473 1472 1472 1472 1472 1471 1472 1473 1474 1476 1476 1477 1478 1480 1482 1482 1482 1483 1482 1482 1482 1481 1481 1480 1479 1478 1476 1474 1472 1469 1467 1464 1462 1460 1458 1455 1453 1451 1448 1446 1444 1442 1439 1437 1434 1432 1430 1427 1425 1423 1420